| time (UTC) | temp C | wind direction | speed KPH | gust KPH | rain 1hr cm | rain 24hr cm | rain mn cm | humidity % | barometer mb |
| 20260505041203 | 11 | 235 | 6.4 | 8.0 | 0.00 | 0.00 | 0.00 | 86 | 1011.8 |
| 20260505040204 | 11 | 256 | 6.4 | 11.3 | 0.00 | 0.00 | 0.00 | 86 | 1011.9 |
| 20260505035203 | 11 | 263 | 9.7 | 9.7 | 0.00 | 0.00 | 0.00 | 85 | 1011.8 |
| 20260505034204 | 11 | 260 | 4.8 | 8.0 | 0.00 | 0.00 | 0.00 | 85 | 1011.9 |
| 20260505033202 | 11 | 235 | 6.4 | 9.7 | 0.00 | 0.00 | 0.00 | 85 | 1011.8 |
| 20260505032204 | 11 | 250 | 6.4 | 9.7 | 0.00 | 0.00 | 0.00 | 84 | 1011.7 |
| 20260505031204 | 11 | 259 | 8.0 | 9.7 | 0.00 | 0.00 | 0.00 | 84 | 1011.9 |
| 20260505030203 | 11 | 250 | 6.4 | 11.3 | 0.00 | 0.00 | 0.00 | 84 | 1011.9 |
| 20260505025203 | 11 | 273 | 8.0 | 12.9 | 0.00 | 0.00 | 0.00 | 84 | 1011.9 |
| 20260505024204 | 11 | 249 | 8.0 | 9.7 | 0.00 | 0.00 | 0.00 | 83 | 1011.9 |
| 20260505023203 | 11 | 260 | 8.0 | 11.3 | 0.00 | 0.00 | 0.00 | 83 | 1011.9 |
| 20260505022203 | 11 | 262 | 4.8 | 11.3 | 0.00 | 0.00 | 0.00 | 83 | 1011.9 |
| 20260505021203 | 11 | 249 | 6.4 | 12.9 | 0.00 | 0.00 | 0.00 | 82 | 1012.0 |
| 20260505020203 | 11 | 250 | 6.4 | 12.9 | 0.00 | 0.00 | 0.00 | 81 | 1012.0 |
| 20260505015203 | 12 | 228 | 9.7 | 12.9 | 0.00 | 0.00 | 0.00 | 80 | 1012.0 |
| 20260505014202 | 11 | 263 | 6.4 | 14.5 | 0.00 | 0.00 | 0.00 | 80 | 1012.0 |
| 20260505013202 | 12 | 263 | 8.0 | 12.9 | 0.00 | 0.00 | 0.00 | 79 | 1011.9 |
| 20260505012202 | 12 | 257 | 6.4 | 9.7 | 0.00 | 0.00 | 0.00 | 78 | 1011.8 |
| 20260505011234 | 12 | 253 | 6.4 | 14.5 | 0.00 | 0.00 | 0.00 | 77 | 1011.6 |
| 20260505011203 | 12 | 253 | 6.4 | 14.5 | 0.00 | 0.00 | 0.00 | 77 | 1011.6 |
| 20260505010203 | 12 | 250 | 11.3 | 14.5 | 0.00 | 0.00 | 0.00 | 76 | 1011.5 |
| 20260505005202 | 12 | 253 | 4.8 | 11.3 | 0.00 | 0.00 | 0.00 | 75 | 1011.1 |
| 20260505004203 | 12 | 263 | 9.7 | 12.9 | 0.00 | 0.00 | 0.00 | 76 | 1010.8 |
| 20260505003204 | 12 | 226 | 9.7 | 12.9 | 0.00 | 0.00 | 0.00 | 75 | 1010.6 |
| 20260505002203 | 12 | 273 | 9.7 | 12.9 | 0.00 | 0.00 | 0.00 | 74 | 1010.5 |
| 20260505001204 | 13 | 236 | 12.9 | 16.1 | 0.00 | 0.00 | 0.00 | 73 | 1010.3 |
| 20260505000204 | 13 | 246 | 8.0 | 16.1 | 0.00 | 0.00 | 0.00 | 71 | 1010.2 |
| 20260504235204 | 13 | 250 | 6.4 | 9.7 | 0.00 | 0.00 | 0.00 | 69 | 1010.1 |
| 20260504234203 | 13 | 246 | 3.2 | 11.3 | 0.00 | 0.00 | 0.00 | 68 | 1010.0 |
| 20260504233203 | 13 | 245 | 8.0 | 14.5 | 0.00 | 0.00 | 0.00 | 67 | 1010.0 |
| 20260504232203 | 14 | 259 | 6.4 | 12.9 | 0.00 | 0.00 | 0.00 | 64 | 1009.9 |
| 20260504231204 | 14 | 255 | 8.0 | 22.5 | 0.00 | 0.00 | 0.00 | 63 | 1009.7 |
| 20260504230204 | 14 | 260 | 8.0 | 12.9 | 0.00 | 0.00 | 0.00 | 62 | 1009.7 |
| 20260504225202 | 15 | 238 | 22.5 | 22.5 | 0.00 | 0.00 | 0.00 | 61 | 1009.7 |
| 20260504224204 | 14 | 264 | 11.3 | 17.7 | 0.00 | 0.00 | 0.00 | 58 | 1009.7 |
| 20260504223204 | 15 | 248 | 8.0 | 17.7 | 0.00 | 0.00 | 0.00 | 58 | 1009.6 |
| 20260504222204 | 15 | 277 | 12.9 | 14.5 | 0.00 | 0.00 | 0.00 | 55 | 1009.5 |
| 20260504221203 | 16 | 260 | 9.7 | 14.5 | 0.00 | 0.00 | 0.00 | 53 | 1009.6 |
| 20260504220203 | 16 | 256 | 12.9 | 12.9 | 0.00 | 0.00 | 0.00 | 47 | 1009.5 |
| 20260504215203 | 16 | 262 | 8.0 | 19.3 | 0.00 | 0.00 | 0.00 | 46 | 1009.3 |
| 20260504214203 | 17 | 249 | 14.5 | 17.7 | 0.00 | 0.00 | 0.00 | 46 | 1009.4 |
| 20260504213204 | 17 | 250 | 8.0 | 16.1 | 0.00 | 0.00 | 0.00 | 47 | 1009.4 |
| 20260504212204 | 17 | 226 | 11.3 | 14.5 | 0.00 | 0.00 | 0.00 | 44 | 1009.3 |
| 20260504211203 | 17 | 221 | 9.7 | 19.3 | 0.00 | 0.00 | 0.00 | 48 | 1009.3 |
| 20260504210202 | 17 | 226 | 12.9 | 17.7 | 0.00 | 0.00 | 0.00 | 45 | 1009.3 |
| 20260504205204 | 17 | 239 | 12.9 | 16.1 | 0.00 | 0.00 | 0.00 | 45 | 1009.3 |
| 20260504204204 | 16 | 256 | 11.3 | 24.1 | 0.00 | 0.00 | 0.00 | 44 | 1009.2 |
| 20260504203233 | 17 | 239 | 9.7 | 16.1 | 0.00 | 0.00 | 0.00 | 43 | 1009.0 |
| 20260504203202 | 17 | 239 | 9.7 | 16.1 | 0.00 | 0.00 | 0.00 | 43 | 1009.0 |
| 20260504202203 | 17 | 262 | 6.4 | 20.9 | 0.00 | 0.00 | 0.00 | 42 | 1009.0 |
| 20260504201233 | 17 | 243 | 9.7 | 16.1 | 0.00 | 0.00 | 0.00 | 44 | 1009.1 |
| 20260504201203 | 17 | 218 | 6.4 | 19.3 | 0.00 | 0.00 | 0.00 | 44 | 1009.0 |
| 20260504200203 | 17 | 249 | 12.9 | 16.1 | 0.00 | 0.00 | 0.00 | 44 | 1009.1 |
| 20260504195203 | 17 | 294 | 8.0 | 22.5 | 0.00 | 0.00 | 0.00 | 42 | 1009.1 |
| 20260504194203 | 18 | 243 | 8.0 | 22.5 | 0.00 | 0.00 | 0.00 | 42 | 1009.1 |
| 20260504193232 | 18 | 195 | 4.8 | 16.1 | 0.00 | 0.00 | 0.00 | 38 | 1009.1 |
| 20260504193202 | 18 | 246 | 11.3 | 24.1 | 0.00 | 0.00 | 0.00 | 38 | 1009.0 |
| 20260504192234 | 18 | 260 | 8.0 | 20.9 | 0.00 | 0.00 | 0.00 | 38 | 1009.1 |
| 20260504192203 | 18 | 260 | 8.0 | 20.9 | 0.00 | 0.00 | 0.00 | 38 | 1009.1 |
| 20260504191203 | 18 | 239 | 12.9 | 16.1 | 0.00 | 0.00 | 0.00 | 39 | 1009.2 |
| 20260504190234 | 18 | 245 | 9.7 | 22.5 | 0.00 | 0.00 | 0.00 | 37 | 1009.4 |
| 20260504190203 | 18 | 260 | 12.9 | 22.5 | 0.00 | 0.00 | 0.00 | 37 | 1009.4 |
| 20260504185204 | 17 | 267 | 16.1 | 19.3 | 0.00 | 0.00 | 0.00 | 36 | 1009.6 |
| 20260504184203 | 18 | 246 | 12.9 | 25.7 | 0.00 | 0.00 | 0.00 | 36 | 1009.6 |
| 20260504183233 | 18 | 255 | 11.3 | 22.5 | 0.00 | 0.00 | 0.00 | 35 | 1009.7 |
| 20260504183202 | 18 | 222 | 12.9 | 29.0 | 0.00 | 0.00 | 0.00 | 34 | 1009.6 |
| 20260504182203 | 18 | 228 | 8.0 | 22.5 | 0.00 | 0.00 | 0.00 | 34 | 1009.7 |
| 20260504181203 | 18 | 285 | 6.4 | 25.7 | 0.00 | 0.00 | 0.00 | 35 | 1009.8 |
| 20260504180203 | 18 | 253 | 16.1 | 24.1 | 0.00 | 0.00 | 0.00 | 32 | 1009.9 |
| 20260504175204 | 18 | 204 | 8.0 | 17.7 | 0.00 | 0.00 | 0.00 | 36 | 1009.9 |
| 20260504174203 | 18 | 228 | 14.5 | 29.0 | 0.00 | 0.00 | 0.00 | 32 | 1009.8 |
| 20260504173203 | 19 | 280 | 12.9 | 20.9 | 0.00 | 0.00 | 0.00 | 34 | 1009.8 |
| 20260504172204 | 19 | 240 | 8.0 | 17.7 | 0.00 | 0.00 | 0.00 | 32 | 1009.8 |
| 20260504171202 | 19 | 226 | 16.1 | 27.4 | 0.00 | 0.00 | 0.00 | 30 | 1009.9 |
| 20260504170204 | 18 | 235 | 8.0 | 14.5 | 0.00 | 0.00 | 0.00 | 32 | 1009.9 |
| 20260504160204 | 18 | 260 | 12.9 | 24.1 | 0.00 | 0.00 | 0.00 | 33 | 1010.6 |
| 20260504150203 | 17 | 262 | 12.9 | 29.0 | 0.00 | 0.00 | 0.00 | 33 | 1011.1 |
| 20260504141203 | 16 | 253 | 8.0 | 17.7 | 0.00 | 0.00 | 0.00 | 39 | 1011.5 |
| 20260504140203 | 16 | 274 | 9.7 | 17.7 | 0.00 | 0.00 | 0.00 | 42 | 1011.6 |
| 20260504130233 | 15 | 278 | 9.7 | 12.9 | 0.00 | 0.00 | 0.00 | 47 | 1012.0 |
| 20260504130202 | 15 | 278 | 9.7 | 12.9 | 0.00 | 0.00 | 0.00 | 47 | 1012.0 |
| 20260504120203 | 11 | 263 | 3.2 | 9.7 | 0.00 | 0.00 | 0.00 | 58 | 1012.5 |
| 20260504110202 | 8 | 255 | 4.8 | 9.7 | 0.00 | 0.00 | 0.00 | 74 | 1012.2 |
| 20260504100204 | 7 | 274 | 6.4 | 8.0 | 0.00 | 0.00 | 0.00 | 77 | 1012.0 |
| 20260504081203 | 6 | 257 | 4.8 | 4.8 | 0.00 | 0.00 | 0.00 | 78 | 1011.8 |
| 20260504080203 | 6 | 269 | 4.8 | 4.8 | 0.00 | 0.00 | 0.00 | 79 | 1011.7 |
| 20260504070204 | 6 | 266 | 4.8 | 6.4 | 0.00 | 0.00 | 0.00 | 75 | 1011.6 |
| 20260504060203 | 5 | 278 | 3.2 | 4.8 | 0.00 | 0.00 | 0.00 | 72 | 1011.3 |
| 20260504050203 | 5 | 264 | 3.2 | 4.8 | 0.00 | 0.00 | 0.00 | 68 | 1011.5 |
| 20260504045204 | 5 | 267 | 3.2 | 4.8 | 0.00 | 0.00 | 0.00 | 68 | 1011.5 |
| 20260504044203 | 5 | 269 | 3.2 | 4.8 | 0.00 | 0.00 | 0.00 | 67 | 1011.5 |
| 20260504043202 | 5 | 262 | 4.8 | 4.8 | 0.00 | 0.00 | 0.00 | 66 | 1011.6 |